Retour au catalogue

STARLINK-4723

ActifCommunicationsVLEO
NORAD 53797·PAYLOAD·🇺🇸 United States

Lancé Sep 11, 2022 depuis Cape Canaveral Space Force Station

Loading…

Prochains Passages (prochaines 24 heures)

TLE

FraisSource: CelesTrak SupGP

Époque: Sep 14, 2026, 20:51 UTC

1 53797C 22111AA  26257.86923611 -.00037282  00000+0 -11989-2 0  2576
2 53797  53.1585 132.3434 0001354  87.6267 340.8838 15.31721104    19

Suivez STARLINK-4723 en temps réel avec AllMySat

Download on the App Store